AMAZONAS 4A

Last updated on Sun Jun 21 2026 00:03:06 GMT+0000 (Coordinated Universal Time)

1 39616U 14011A 26171.37733707 -.00000257 00000+0 00000+0 0 9999 2 39616 0.0587 178.4109 0003921 293.4493 218.5631 1.00272928 44742
UTC large
Height (km)
Speed (km/s)
/
Latitude / Longitude
Inclination (degrees)
Orbital Period (minutes)
Azimuth
Elevation
Range (km)
Doppler Factor

Next 0 passes for location: London (51.5072 / 0.1276)

No passes found over London.
AMAZONAS 4A